Time,TemperatureF,DewpointF,PressureIn,WindDirection,WindDirectionDegrees,WindSpeedMPH,WindSpeedGustMPH,Humidity,HourlyPrecipIn,Conditions,Clouds,dailyrainin,SoftwareType,DateUTC
2013-04-14 00:06:00,53.0,42.7,29.89,NNE,22,0.0,7.0,68,0.00,,,-99.99,Weather View 32 v70,2013-04-14 07:06:00,
2013-04-14 00:22:00,53.0,42.3,29.89,NNE,22,0.0,28.0,67,0.00,,,-99.99,Weather View 32 v70,2013-04-14 07:22:00,
2013-04-14 00:30:00,52.0,41.7,29.88,NNE,22,0.0,28.0,68,0.00,,,-99.99,Weather View 32 v70,2013-04-14 07:30:00,
2013-04-14 00:36:00,52.0,41.7,29.88,NNE,22,0.0,28.0,68,0.00,,,-99.99,Weather View 32 v70,2013-04-14 07:36:00,
2013-04-14 00:51:00,53.0,42.3,29.88,North,0,0.0,28.0,67,0.00,,,-99.99,Weather View 32 v70,2013-04-14 07:51:00,
2013-04-14 01:06:00,52.0,42.1,29.88,NNE,22,0.0,28.0,69,0.00,,,-99.99,Weather View 32 v70,2013-04-14 08:06:00,
2013-04-14 01:22:00,51.0,41.2,29.88,NNE,22,0.0,6.0,69,0.00,,,-99.99,Weather View 32 v70,2013-04-14 08:22:00,
2013-04-14 01:36:00,51.0,41.2,29.89,NNE,22,0.0,1.0,69,0.00,,,-99.99,Weather View 32 v70,2013-04-14 08:36:00,
2013-04-14 02:07:00,52.0,41.4,29.88,NNE,22,0.0,0.0,67,0.00,,,-99.99,Weather View 32 v70,2013-04-14 09:07:00,
2013-04-14 02:22:00,51.0,40.8,29.88,NNE,22,0.0,1.0,68,0.00,,,-99.99,Weather View 32 v70,2013-04-14 09:22:00,
2013-04-14 02:37:00,50.0,41.0,29.87,NNE,22,0.0,3.0,71,0.00,,,-99.99,Weather View 32 v70,2013-04-14 09:37:00,
2013-04-14 02:52:00,50.0,40.6,29.87,North,0,9.0,11.0,70,0.00,,,-99.99,Weather View 32 v70,2013-04-14 09:52:00,
2013-04-14 03:07:00,51.0,40.4,29.87,North,0,3.0,13.0,67,0.00,,,-99.99,Weather View 32 v70,2013-04-14 10:07:00,
2013-04-14 03:21:00,51.0,40.0,29.86,North,0,7.0,14.0,66,0.00,,,-99.99,Weather View 32 v70,2013-04-14 10:21:00,
2013-04-14 03:36:00,50.0,40.2,29.86,NNE,22,5.0,14.0,69,0.00,,,-99.99,Weather View 32 v70,2013-04-14 10:36:00,
2013-04-14 03:52:00,50.0,40.2,29.87,NNE,22,0.0,14.0,69,0.00,,,-99.99,Weather View 32 v70,2013-04-14 10:52:00,
2013-04-14 04:07:00,49.0,40.4,29.87,NNE,22,0.0,14.0,72,0.00,,,-99.99,Weather View 32 v70,2013-04-14 11:07:00,
2013-04-14 04:22:00,50.0,40.2,29.87,NNE,22,0.0,10.0,69,0.00,,,-99.99,Weather View 32 v70,2013-04-14 11:22:00,
2013-04-14 04:36:00,49.0,40.0,29.87,NNE,22,0.0,6.0,71,0.00,,,-99.99,Weather View 32 v70,2013-04-14 11:36:00,
2013-04-14 04:52:00,50.0,39.8,29.86,NNE,22,0.0,10.0,68,0.00,,,-99.99,Weather View 32 v70,2013-04-14 11:52:00,
2013-04-14 04:53:00,50.0,39.8,29.86,NNE,22,0.0,10.0,68,0.00,,,-99.99,Weather View 32 v70,2013-04-14 11:53:00,
2013-04-14 05:06:00,50.0,38.7,29.84,North,0,0.0,10.0,65,0.00,,,-99.99,Weather View 32 v70,2013-04-14 12:06:00,
2013-04-14 05:21:00,48.0,39.0,29.85,North,0,0.0,10.0,71,0.00,,,-99.99,Weather View 32 v70,2013-04-14 12:21:00,
2013-04-14 05:37:00,49.0,39.6,29.85,ESE,112,0.0,10.0,70,0.00,,,-99.99,Weather View 32 v70,2013-04-14 12:37:00,
2013-04-14 05:51:00,49.0,38.5,29.84,NNE,22,0.0,5.0,67,0.00,,,-99.99,Weather View 32 v70,2013-04-14 12:51:00,
2013-04-14 05:54:00,49.0,38.5,29.84,NNE,22,0.0,5.0,67,0.00,,,-99.99,Weather View 32 v70,2013-04-14 12:54:00,
2013-04-14 06:07:00,49.0,38.9,29.84,ENE,68,0.0,1.0,68,0.00,,,-99.99,Weather View 32 v70,2013-04-14 13:07:00,
2013-04-14 06:21:00,49.0,38.9,29.84,North,0,0.0,1.0,68,0.00,,,-99.99,Weather View 32 v70,2013-04-14 13:21:00,
2013-04-14 06:37:00,49.0,38.5,29.84,NNE,22,0.0,1.0,67,0.00,,,-99.99,Weather View 32 v70,2013-04-14 13:37:00,
2013-04-14 06:51:00,49.0,38.5,29.84,East,90,0.0,1.0,67,0.00,,,-99.99,Weather View 32 v70,2013-04-14 13:51:00,
2013-04-14 06:54:00,49.0,38.5,29.84,East,90,0.0,1.0,67,0.00,,,-99.99,Weather View 32 v70,2013-04-14 13:54:00,
2013-04-14 07:07:00,49.0,37.7,29.85,NNE,22,0.0,10.0,65,0.00,,,-99.99,Weather View 32 v70,2013-04-14 14:07:00,
2013-04-14 07:21:00,50.0,38.7,29.85,NNE,22,0.0,10.0,65,0.00,,,-99.99,Weather View 32 v70,2013-04-14 14:21:00,
2013-04-14 07:36:00,50.0,38.7,29.86,NW,315,0.0,10.0,65,0.00,,,-99.99,Weather View 32 v70,2013-04-14 14:36:00,
2013-04-14 07:45:00,51.0,38.8,29.86,North,0,0.0,10.0,63,0.00,,,-99.99,Weather View 32 v70,2013-04-14 14:45:00,
2013-04-14 07:52:00,51.0,38.8,29.86,North,0,0.0,10.0,63,0.00,,,-99.99,Weather View 32 v70,2013-04-14 14:52:00,
2013-04-14 08:06:00,52.0,38.5,29.86,NNE,22,0.0,5.0,60,0.00,,,-99.99,Weather View 32 v70,2013-04-14 15:06:00,
2013-04-14 08:21:00,53.0,39.0,29.86,NNE,22,0.0,21.0,59,0.00,,,-99.99,Weather View 32 v70,2013-04-14 15:21:00,
2013-04-14 08:37:00,54.0,37.7,29.86,NNE,22,0.0,21.0,54,0.00,,,-99.99,Weather View 32 v70,2013-04-14 15:37:00,
2013-04-14 08:45:00,56.0,37.6,29.86,North,0,1.0,21.0,50,0.00,,,-99.99,Weather View 32 v70,2013-04-14 15:45:00,
2013-04-14 08:51:00,56.0,37.6,29.86,North,0,1.0,21.0,50,0.00,,,-99.99,Weather View 32 v70,2013-04-14 15:51:00,
2013-04-14 09:07:00,56.0,36.0,29.86,NNE,22,6.0,21.0,47,0.00,,,-99.99,Weather View 32 v70,2013-04-14 16:07:00,
2013-04-14 09:21:00,57.0,36.4,29.86,North,0,0.0,21.0,46,0.00,,,-99.99,Weather View 32 v70,2013-04-14 16:21:00,
2013-04-14 09:36:00,58.0,34.4,29.86,North,0,6.0,15.0,41,0.00,,,-99.99,Weather View 32 v70,2013-04-14 16:36:00,
2013-04-14 09:45:00,57.0,35.8,29.87,NNE,22,0.0,15.0,45,0.00,,,-99.99,Weather View 32 v70,2013-04-14 16:45:00,
2013-04-14 09:52:00,57.0,35.8,29.87,NNE,22,0.0,15.0,45,0.00,,,-99.99,Weather View 32 v70,2013-04-14 16:52:00,
2013-04-14 10:06:00,59.0,37.1,29.86,North,0,3.0,15.0,44,0.00,,,-99.99,Weather View 32 v70,2013-04-14 17:06:00,
2013-04-14 10:22:00,59.0,35.9,29.86,North,0,0.0,15.0,42,0.00,,,-99.99,Weather View 32 v70,2013-04-14 17:22:00,
2013-04-14 10:37:00,60.0,36.8,29.86,North,0,3.0,14.0,42,0.00,,,-99.99,Weather View 32 v70,2013-04-14 17:37:00,
2013-04-14 10:52:00,61.0,35.8,29.86,North,0,8.0,14.0,39,0.00,,,-99.99,Weather View 32 v70,2013-04-14 17:52:00,
2013-04-14 11:06:00,62.0,37.3,29.87,North,0,8.0,14.0,40,0.00,,,-99.99,Weather View 32 v70,2013-04-14 18:06:00,
2013-04-14 11:21:00,63.0,36.9,29.87,North,0,9.0,14.0,38,0.00,,,-99.99,Weather View 32 v70,2013-04-14 18:21:00,
2013-04-14 11:37:00,64.0,36.4,29.86,North,0,0.0,14.0,36,0.00,,,-99.99,Weather View 32 v70,2013-04-14 18:37:00,
2013-04-14 11:45:00,65.0,37.3,29.86,NNW,338,0.0,14.0,36,0.00,,,-99.99,Weather View 32 v70,2013-04-14 18:45:00,
2013-04-14 11:51:00,65.0,37.3,29.86,NNW,338,0.0,14.0,36,0.00,,,-99.99,Weather View 32 v70,2013-04-14 18:51:00,
2013-04-14 12:21:00,68.0,37.0,29.85,NNW,338,3.0,16.0,32,0.00,,,-99.99,Weather View 32 v70,2013-04-14 19:21:00,
2013-04-14 12:36:00,68.0,35.3,29.85,NNE,22,0.0,16.0,30,0.00,,,-99.99,Weather View 32 v70,2013-04-14 19:36:00,
2013-04-14 12:45:00,70.0,37.9,29.85,NNW,338,0.0,19.0,31,0.00,,,-99.99,Weather View 32 v70,2013-04-14 19:45:00,
2013-04-14 12:52:00,70.0,37.9,29.85,NNW,338,0.0,19.0,31,0.00,,,-99.99,Weather View 32 v70,2013-04-14 19:52:00,
2013-04-14 13:07:00,70.0,37.9,29.85,North,0,0.0,19.0,31,0.00,,,-99.99,Weather View 32 v70,2013-04-14 20:07:00,
2013-04-14 13:22:00,72.0,41.2,29.84,North,0,0.0,19.0,33,0.00,,,-99.99,Weather View 32 v70,2013-04-14 20:22:00,
2013-04-14 13:37:00,71.0,42.6,29.85,NNW,338,0.0,19.0,36,0.00,,,-99.99,Weather View 32 v70,2013-04-14 20:37:00,
2013-04-14 13:45:00,70.0,43.8,29.84,NNW,338,14.0,19.0,39,0.00,,,-99.99,Weather View 32 v70,2013-04-14 20:45:00,
2013-04-14 13:52:00,70.0,43.8,29.84,NNW,338,14.0,19.0,39,0.00,,,-99.99,Weather View 32 v70,2013-04-14 20:52:00,
2013-04-14 14:06:00,68.0,42.7,29.84,North,0,6.0,22.0,40,0.00,,,-99.99,Weather View 32 v70,2013-04-14 21:06:00,
2013-04-14 14:21:00,69.0,41.6,29.84,North,0,10.0,25.0,37,0.00,,,-99.99,Weather View 32 v70,2013-04-14 21:21:00,
2013-04-14 14:37:00,69.0,41.6,29.84,NNW,338,13.0,25.0,37,0.00,,,-99.99,Weather View 32 v70,2013-04-14 21:37:00,
2013-04-14 14:45:00,69.0,42.3,29.84,North,0,14.0,25.0,38,0.00,,,-99.99,Weather View 32 v70,2013-04-14 21:45:00,
2013-04-14 14:52:00,69.0,42.3,29.84,North,0,14.0,25.0,38,0.00,,,-99.99,Weather View 32 v70,2013-04-14 21:52:00,
2013-04-14 15:07:00,67.0,41.8,29.84,North,0,16.0,25.0,40,0.00,,,-99.99,Weather View 32 v70,2013-04-14 22:07:00,
2013-04-14 15:21:00,67.0,42.5,29.84,NNW,338,26.0,26.0,41,0.00,,,-99.99,Weather View 32 v70,2013-04-14 22:21:00,
2013-04-14 15:37:00,68.0,43.4,29.85,North,0,13.0,26.0,41,0.00,,,-99.99,Weather View 32 v70,2013-04-14 22:37:00,
2013-04-14 15:45:00,66.0,42.2,29.86,North,0,15.0,26.0,42,0.00,,,-99.99,Weather View 32 v70,2013-04-14 22:45:00,
2013-04-14 15:51:00,66.0,42.2,29.86,North,0,15.0,26.0,42,0.00,,,-99.99,Weather View 32 v70,2013-04-14 22:51:00,
2013-04-14 16:07:00,63.0,41.8,29.87,North,0,23.0,28.0,46,0.00,,,-99.99,Weather View 32 v70,2013-04-14 23:07:00,
2013-04-14 16:21:00,65.0,43.1,29.88,North,0,18.0,28.0,45,0.00,,,-99.99,Weather View 32 v70,2013-04-14 23:21:00,
2013-04-14 16:45:00,63.0,43.5,29.88,NNE,22,10.0,28.0,49,0.00,,,-99.99,Weather View 32 v70,2013-04-14 23:45:00,
2013-04-14 16:52:00,63.0,43.5,29.88,NNE,22,10.0,28.0,49,0.00,,,-99.99,Weather View 32 v70,2013-04-14 23:52:00,
2013-04-14 17:22:00,61.0,42.7,29.88,NNW,338,17.0,26.0,51,0.00,,,-99.99,Weather View 32 v70,2013-04-15 00:22:00,
2013-04-14 17:37:00,61.0,43.2,29.89,North,0,14.0,26.0,52,0.00,,,-99.99,Weather View 32 v70,2013-04-15 00:37:00,
2013-04-14 17:45:00,60.0,42.8,29.89,NNW,338,11.0,26.0,53,0.00,,,-99.99,Weather View 32 v70,2013-04-15 00:45:00,
2013-04-14 17:51:00,60.0,42.8,29.89,NNW,338,11.0,26.0,53,0.00,,,-99.99,Weather View 32 v70,2013-04-15 00:51:00,
2013-04-14 18:07:00,60.0,43.7,29.89,North,0,16.0,26.0,55,0.00,,,-99.99,Weather View 32 v70,2013-04-15 01:07:00,
2013-04-14 18:22:00,61.0,46.1,29.90,North,0,11.0,26.0,58,0.00,,,-99.99,Weather View 32 v70,2013-04-15 01:22:00,
2013-04-14 18:37:00,60.0,46.0,29.90,North,0,9.0,25.0,60,0.00,,,-99.99,Weather View 32 v70,2013-04-15 01:37:00,
2013-04-14 18:51:00,59.0,45.5,29.90,NNE,22,0.0,25.0,61,0.00,,,-99.99,Weather View 32 v70,2013-04-15 01:51:00,
2013-04-14 19:07:00,58.0,45.0,29.90,NNE,22,10.0,24.0,62,0.00,,,-99.99,Weather View 32 v70,2013-04-15 02:07:00,
2013-04-14 19:21:00,57.0,44.5,29.89,NNE,22,13.0,24.0,63,0.00,,,-99.99,Weather View 32 v70,2013-04-15 02:21:00,
2013-04-14 19:36:00,56.0,44.8,29.90,North,0,0.0,24.0,66,0.00,,,-99.99,Weather View 32 v70,2013-04-15 02:36:00,
2013-04-14 19:45:00,55.0,45.0,29.89,NNW,338,0.0,24.0,69,0.00,,,-99.99,Weather View 32 v70,2013-04-15 02:45:00,
2013-04-14 19:52:00,55.0,45.0,29.89,NNW,338,0.0,24.0,69,0.00,,,-99.99,Weather View 32 v70,2013-04-15 02:52:00,
2013-04-14 20:07:00,55.0,45.8,29.89,NNE,22,13.0,24.0,71,0.00,,,-99.99,Weather View 32 v70,2013-04-15 03:07:00,
2013-04-14 20:22:00,54.0,45.5,29.89,NW,315,0.0,21.0,73,0.00,,,-99.99,Weather View 32 v70,2013-04-15 03:22:00,
2013-04-14 20:36:00,53.0,45.3,29.88,North,0,14.0,21.0,75,0.00,,,-99.99,Weather View 32 v70,2013-04-15 03:36:00,
2013-04-14 20:45:00,53.0,45.6,29.88,NNW,338,13.0,21.0,76,0.00,,,-99.99,Weather View 32 v70,2013-04-15 03:45:00,
2013-04-14 20:52:00,53.0,45.6,29.88,NNW,338,13.0,21.0,76,0.00,,,-99.99,Weather View 32 v70,2013-04-15 03:52:00,
2013-04-14 21:06:00,52.0,45.7,29.88,North,0,11.0,20.0,79,0.00,,,-99.99,Weather View 32 v70,2013-04-15 04:06:00,
2013-04-14 21:22:00,52.0,46.0,29.88,North,0,16.0,20.0,80,0.00,,,-99.99,Weather View 32 v70,2013-04-15 04:22:00,
2013-04-14 21:36:00,52.0,47.0,29.87,NNW,338,13.0,21.0,83,0.00,,,-99.99,Weather View 32 v70,2013-04-15 04:36:00,
2013-04-14 21:45:00,51.0,46.3,29.88,North,0,13.0,21.0,84,0.00,,,-99.99,Weather View 32 v70,2013-04-15 04:45:00,
2013-04-14 21:52:00,51.0,46.3,29.88,North,0,13.0,21.0,84,0.00,,,-99.99,Weather View 32 v70,2013-04-15 04:52:00,
2013-04-14 22:07:00,52.0,47.6,29.87,NNW,338,11.0,21.0,85,0.00,,,-99.99,Weather View 32 v70,2013-04-15 05:07:00,
2013-04-14 22:21:00,52.0,47.6,29.87,North,0,10.0,21.0,85,0.00,,,-99.99,Weather View 32 v70,2013-04-15 05:21:00,
2013-04-14 22:37:00,52.0,47.6,29.86,North,0,7.0,21.0,85,0.00,,,-99.99,Weather View 32 v70,2013-04-15 05:37:00,
2013-04-14 22:45:00,52.0,48.2,29.84,NW,315,14.0,21.0,87,0.00,,,-99.99,Weather View 32 v70,2013-04-15 05:45:00,
2013-04-14 22:51:00,52.0,48.2,29.84,NW,315,14.0,21.0,87,0.00,,,-99.99,Weather View 32 v70,2013-04-15 05:51:00,
2013-04-14 23:07:00,52.0,48.5,29.84,North,0,10.0,21.0,88,0.00,,,-99.99,Weather View 32 v70,2013-04-15 06:07:00,
2013-04-14 23:21:00,51.0,47.9,29.84,North,0,1.0,21.0,89,0.00,,,-99.99,Weather View 32 v70,2013-04-15 06:21:00,
2013-04-14 23:37:00,51.0,48.2,29.85,North,0,0.0,21.0,90,0.00,,,-99.99,Weather View 32 v70,2013-04-15 06:37:00,
2013-04-14 23:45:00,51.0,48.5,29.84,North,0,0.0,21.0,91,0.00,,,-99.99,Weather View 32 v70,2013-04-15 06:45:00,
2013-04-14 23:51:00,51.0,48.5,29.84,North,0,0.0,21.0,91,0.00,,,-99.99,Weather View 32 v70,2013-04-15 06:51:00,